Location: Unspecified
(42.3650°N, 71.1030°W)
Time: 06:43:03
(UTC+00:00)

Vanguard 2 - Pass Details

Date: 27 June 2024
Orbit: 552 x 2913 km, 32.9° (Epoch: 13 July)

Event Time Altitude Azimuth Distance (km) Brightness Sun altitude
Exits shadow 06:49:53 14° 172° (S) 3,868 10.6 -18.5°
Maximum altitude 06:56:14 22° 135° (SE) 3,837 10.9 -17.9°
Drops below altitude 10° 07:06:24 10° 94° (E) 5,377 12.2 -16.9°
Sets 07:12:29 0° 82° (E) 6,634 13.0 -16.3°
